AirNav   Air Wisconsin pilot careers
 
 414 users online  

2UT2 High Meadow Ranch Airport
Duck Creek Village, Utah, USA

GOING TO DUCK CREEK VILLAGE?


FAA INFORMATION EFFECTIVE 19 JULY 2018

Location

FAA Identifier: 2UT2
Lat/Long: 37-31-42.3350N / 112-39-39.1900W
37-31.705583N / 112-39.653167W
37.5284264 / -112.6608861
(estimated)
Elevation: 8280 ft. / 2524 m
Variation: 13E (2000)
From city: 1 mile N of DUCK CREEK VILLAGE, UT
Time zone: UTC -6 (UTC -7 during Standard Time)
Zip code: 84710

Airport Operations

Airport use: Private use. Permission required prior to landing
Activation date: 02/2002
Control tower: no
ARTCC: SALT LAKE CITY CENTER
FSS: CEDAR CITY FLIGHT SERVICE STATION
Attendance: UNATNDD
Wind indicator: yes
Segmented circle: no

Nearby radio navigation aids

VOR radial/distance  VOR name  Freq  Var
BCEr225/19.5BRYCE CANYON VORTAC112.8015E
EHKr113/24.8ENOCH VOR/DME117.3016E

 
NDB name  Hdg/Dist  Freq  Var  ID
COLORADO CITY013/37.940313EAZC .- --.. -.-.

Airport Services

Runway Information

Runway 8/26

Dimensions: 2071 x 40 ft. / 631 x 12 m
Surface: turf
RUNWAY 8  RUNWAY 26
Latitude: 37-31.654167N37-31.757000N
Longitude: 112-39.857500W112-39.448833W
Elevation: 8280.0 ft.8280.0 ft.
Traffic pattern: leftleft
Obstructions: 80 ft. trees, 500 ft. from runwaynone

Airport Ownership and Management from official FAA records

Ownership: Privately-owned
Owner: GARY RAYMOND HALVERSON
1696 REDROCK
LAS VEGAS, NV 89146
Phone 702-876-5444
Manager: GARY RAYMOND HALVERSON
1696 REDROCK
LAS VEGAS, NV 89146
Phone 702-876-5444

Instrument Procedures

There are no published instrument procedures at 2UT2.

Some nearby airports with instrument procedures:

U55 - Panguitch Municipal Airport (23 nm NE)
KCDC - Cedar City Regional Airport (23 nm NW)
KBCE - Bryce Canyon Airport (27 nm NE)
KKNB - Kanab Municipal Airport (32 nm S)
KAZC - Colorado City Municipal Airport (38 nm SW)
 
Loc | Ops | Rwys | IFR | FBO | Links
Com | Nav | Svcs | Stats | Notes


 
Area around 2UT2 (High Meadow Ranch Airport)
 
Road maps at: MapQuest Bing Google
 
Aerial photo
No photo
 
Sectional chart

 
Airport distance calculator
Flying to High Meadow Ranch Airport? Find the distance to fly.

From to 2UT2

Sunrise and sunset
Times for 21-Jul-2018
 Local
(UTC-6)
 Zulu
(UTC)
Morning civil twilight05:5711:57
Sunrise06:2712:27
Sunset20:4702:47
Evening civil twilight21:1703:17

Current date and time
Zulu (UTC)  21-Jul-2018 10:03:06
Local (UTC-6)  21-Jul-2018 04:03:06
 
METAR
KCDC 
23nm NW 
210953Z AUTO 10004KT 10SM CLR 21/12 A3020 RMK AO2 SLP133 T02060117
KBCE 
26nm NE 
210853Z AUTO 26005KT 10SM CLR 15/08 A3037 RMK AO2 SLP145 T01500078 53000
KAZC 
38nm SW 
210955Z AUTO 00000KT 10SM CLR 21/18 A3018 RMK AO2
TAF
KCDC 
23nm NW 
210546Z 2106/2206 14006KT P6SM SCT150 FM211600 23008KT P6SM SCT120 FM212000 22010G18KT P6SM VCSH SCT080 BKN150 FM220300 18007KT P6SM SCT100 BKN150
KBCE 
26nm NE 
210546Z 2106/2206 28006KT P6SM SCT080 BKN150 FM211800 30010KT P6SM VCTS SCT080CB BKN120 FM212300 29008KT P6SM SCT100 BKN150
NOTAMs
Click for the latest NOTAMs
NOTAMs are issued by the DoD/FAA and will open in a separate window not controlled by AirNav.

 

 
 

Would you like to see your business listed on this page?

 If your business provides an interesting product or service to pilots, flight crews, aircraft, or users of the High Meadow Ranch Airport, you should consider listing it here.  To start the listing process, click on the button below
 
Add a business
 

Other Pages about High Meadow Ranch Airport

Update a link
 
Copyright © AirNav, LLC. All rights reserved. Privacy Policy  Contact